O3B FM15 (43231 NORAD) Tracking and Keplerian Element Data

This shows tracking and keplerian element data for the satellite.

Feedback or suggestion? Click here.




ElementValue
Catalog43231
NameO3B FM15
Epoch Orbit2042
Epoch Day111.72035294
Epoch Year2019
RAAN17.5995
Inclination0.0436
Eccentricity0.000277
Argument of Perigee15.4874
Mean Anonmoly326.9295
Mean Motion5.0011543
Decay Rate-3E-07
L11 43231U 18024A 19111.72035294 -.00000030 00000-0 00000-0 0 9997
L22 43231 0.0436 17.5995 0002770 15.4874 326.9295 5.00115430 20422

Live tracking and technical data element details for O3B FM15 (NORAD 43231). O3B FM15 can be tracked NOW for your location showing map with azimuth and elevation plus other details from your city location.

Track the satellite on the map from your city or location and see movement details for azimuth, elevation, latitude, longitude, range, height, and movement on the map or in text.







IsCatalogInMostPopularTable: catalog: 43231, numindb: 162
Update: records affected: 1



GetName: 43231 O3B FM15

Hit Count: updated at: Tue, 23 Apr 2019 06:08:13 GMT